Find Starlink 34524

NORAD ID: 64431 Int'l Des: 2025-129 Owner: SPXS Country: US Constellation: starlink operational
LEOCIRCULAR

現在のビュー

3D地球を読み込み中...

About Starlink 34524

Starlink 34524 (NORAD 64431) is a starlink constellation satellite (v2 mini) launched Jun 17, 2025 by SPXS of US. It operates in LEO, CIRCULAR orbit with a mass of 575.00 kg.

次回通過

Passes for default location (London). Set your location on the main map for personalized predictions.

高度履歴

Loading altitude history...

軌道要素

1 64431U 25129V 26263.52773041 -.00001133 00000-0 -34068-4 0 9990
2 64431 70.0010 300.7492 0003100 271.6986 88.3835 15.30410691 70479
Epoch: Sep 20, 2026 • Age: 17 hours

現在のステータス

高度 480.7 km
遠地点 / 近地点 N/A
速度 7.63 km/s
衛星直下点 38.12°N, 136.29°W
打ち上げ日 Jun 17, 2025
運用期間 1.2 years
タイプ internet

技術仕様

分類 Payload
質量 575.00 kg
乾燥質量 530.00 kg
長さ 0.30 m
スパン 29.00 m
形状 ? Box + pan
製造者 SPXS
バスタイプ Starlink V2MO
フェーズステータス In Orbit
所有者/国 SPXS/US

Most Searched